This is the latest recevied weather packets stored in our database for station/object K1WJY. If no packets are shown the sender has not sent any weather packets the latest 10 day(s).
| Time | Temp. | Humidity | Pressure | Rain* | Wind** | Luminosity | Snow |
|---|---|---|---|---|---|---|---|
| 1777156913 | 14.44° C | 46% | 1017.5 hPa | 0 mm | - | 35 W/m² | - |
| 1777156608 | 14.44° C | 45% | 1017.6 hPa | 0 mm | - | 37 W/m² | - |
| 1777156305 | 14.44° C | 45% | 1017.3 hPa | 0 mm | - | 39 W/m² | - |
| 1777156001 | 15° C | 44% | 1017.4 hPa | 0 mm | - | 39 W/m² | - |
| 1777155698 | 15° C | 44% | 1017.3 hPa | 0 mm | - | 48 W/m² | - |
| 1777155394 | 15° C | 44% | 1017.4 hPa | 0 mm | - | 69 W/m² | - |
| 1777155091 | 15.56° C | 44% | 1017.2 hPa | 0 mm | - | 85 W/m² | - |
| 1777154788 | 15.56° C | 43% | 1017.2 hPa | 0 mm | - | 98 W/m² | - |
| 1777154485 | 15.56° C | 42% | 1017 hPa | 0 mm | - | 107 W/m² | - |
| 1777154180 | 15.56° C | 44% | 1017.1 hPa | 0 mm | - | 116 W/m² | - |
| 1777153877 | 15.56° C | 43% | 1017.1 hPa | 0 mm | - | 147 W/m² | - |
| 1777153573 | 15.56° C | 44% | 1017.2 hPa | 0 mm | - | 164 W/m² | - |
| 1777153268 | 15.56° C | 43% | 1017 hPa | 0 mm | - | 182 W/m² | - |
| 1777152965 | 15.56° C | 43% | 1017.1 hPa | 0 mm | - | 200 W/m² | - |
| 1777152662 | 15.56° C | 42% | 1016.8 hPa | 0 mm | - | 217 W/m² | - |
| 1777152359 | 15° C | 43% | 1017.1 hPa | 0 mm | - | 235 W/m² | - |
| 1777152054 | 16.11° C | 42% | 1017.2 hPa | 0 mm | - | 251 W/m² | - |
| 1777151750 | 15.56° C | 42% | 1017 hPa | 0 mm | - | 265 W/m² | - |
| 1777151446 | 16.11° C | 41% | 1016.9 hPa | 0 mm | - | 283 W/m² | - |
| 1777151143 | 15.56° C | 43% | 1016.9 hPa | 0 mm | - | 286 W/m² | - |
| 1777150838 | 15.56° C | 43% | 1017 hPa | 0 mm | - | 309 W/m² | - |
| 1777150538 | 16.11° C | 43% | 1017 hPa | 0 mm | - | 335 W/m² | - |
| 1777150234 | 15.56° C | 43% | 1017.2 hPa | 0 mm | - | 368 W/m² | - |
| 1777149933 | 15.56° C | 41% | 1017 hPa | 0 mm | - | 360 W/m² | - |
| 1777149632 | 15.56° C | 43% | 1017 hPa | 0 mm | - | 364 W/m² | - |
* Rain latest hour (hover to see other rain measurements)
** Current wind speed in m/s (hover to see current wind gust speed)